Regional Weather Roundup
Issued by NWS Jackson, KY

Home | Current Version | Previous Version | Text Only | Print | Product List | Glossary On
Versions: 1 2 3 4 5 6 7 8 9 10 11 12 13 14 15 16 17 18 19 20 21 22 23 24 25 26 27
000
ASUS43 KJKL 300210
RWRJKL

EAST KENTUCKY HOURLY WEATHER ROUNDUP
NATIONAL WEATHER SERVICE JACKSON KY
1000 PM EDT SAT APR 29 2017

NOTE: "FAIR" INDICATES FEW OR NO CLOUDS BELOW 12,000 FEET WITH
NO SIGNIFICANT WEATHER AND/OR OBSTRUCTIONS TO VISIBILITY.

* THESE REPORTS ARE NOT UNDER NWS QUALITY CONTROL AND MAY NOT
  REPORT WEATHER SUCH AS PRECIPITATION AND FOG.

KYZ079-080-083-085-087-088-110-112-115-119-120-300300
...EASTERN KENTUCKY...

CITY           SKY/WX    TMP DP  RH WIND       PRES   REMARKS
JACKSON        CLOUDY    79  63  57 SE3       30.04R
LONDON         PTCLDY    74  63  68 S3        30.03R
SOMERSET*      PTCLDY    77  57  50 CALM      30.03R
MONTICELLO*    CLOUDY    79  64  60 VRB5      30.03R
WILLIAMSBURG*  CLEAR     77  63  61 CALM      30.03R
MIDDLESBORO*   CLOUDY    73  64  73 CALM      30.06R
HARLAN APT*    MOCLDY    73  61  64 CALM      30.08R
PIKE CO APT*     N/A     75  64  69 E5        30.06S
BIG SANDY APT* CLOUDY    72  67  85 E3        30.04F
MOREHEAD APT*  CLOUDY    75  68  78 VRB3      30.01F
$$

KYZ035-036-041-042-044-050-067-078-099-300300
...CENTRAL KENTUCKY...

CITY           SKY/WX    TMP DP  RH WIND       PRES   REMARKS
MT STERLING*   PTCLDY    73  64  73 S6        30.02R
FLEMING/MASON* CLOUDY    75  67  75 SE5       30.00R
DANVILLE*      PTCLDY    70  68  94 S5        30.01R
LEXINGTON      PTCLDY    77  65  66 SE7       29.99R
FRANKFORT      CLOUDY    75  65  70 SE8       29.95R
LOUISVILLE     MOCLDY    78  68  71 SE10      29.91R
LEBANON*         N/A     79  66  65 S8        29.97R
GLASGOW*       HVY RAIN  78  64  62 S7        29.97R
BOWLING GREEN  PTCLDY    80  65  59 S8        29.95R
$$

KYZ091>093-OHZ055-061-077-WVZ005-015-034-035-042-300300
...SOUTHERN OHIO/WEST VIRGINIA...

CITY           SKY/WX    TMP DP  RH WIND       PRES   REMARKS
COVINGTON      CLOUDY    73  67  81 E7        29.97R
COLUMBUS       CLOUDY    59  57  93 NE9       30.05R
DAYTON         CLOUDY    56  55  97 NE12      30.04R FOG
WILMINGTON     MOCLDY    62  62 100 NE10      30.01R FOG
HUNTINGTON     MOCLDY    76  67  73 SE3       30.00F
CHARLESTON     MOCLDY    74  65  73 SE3       30.03S
PINEVILLE*     DRIZZLE   65  64  96 MISG      30.15F
BECKLEY        MOCLDY    73  59  61 SE10      30.16R
BLUEFIELD      MOCLDY    72  61  68 S5        30.18F
LOGAN CO APT*    N/A     75  57  53 SE7       30.07S
$$

VAZ002-007-008-TNZ017-027-036-066-071-300300
...SOUTHWEST VIRGINIA/EAST TENNESSEE...

CITY           SKY/WX    TMP DP  RH WIND       PRES   REMARKS
WISE*          MOCLDY    75  59  57 S8        30.16R
JONESVILLE*      N/A     77  66  69 CALM      30.10R
ABINGDON*      CLOUDY    71  64  78 CALM      30.14R
BRISTOL        PTCLDY    77  65  66 S3        30.11R
MORRISTOWN*    CLEAR     77  63  61 S5        30.07R
SEVIERVILLE*   CLEAR     75  61  60 CALM      30.06R
KNOXVILLE      CLOUDY    80  60  50 S8        30.04R
LAFOLLETTE*    CLEAR     81  61  50 SW12      30.07S
OAK RIDGE      MOCLDY    79  64  60 CALM      30.06R
CROSSVILLE     CLOUDY    71  64  78 S7        30.10R
NASHVILLE      PTCLDY    78  65  63 S9        29.97R
$$

...KEY TO REMARKS...
VSB - VISIBILITY IN MILES
WCI - WIND CHILL INDEX
HX  - HEAT INDEX

$$




USA.gov is the U.S. government's official web portal to all federal, state and local government web resources and services.